Location: Unspecified
(43.4354°N, 0.0000°E)
Time: 17:50:36
(UTC+00:00)

S-56A Canister/Altair - Pass Details

Date: 30 June 2019
Orbit: 632 x 2500 km, 38.9° (Epoch: 17 July)

Event Time Altitude Azimuth Distance (km) Brightness Sun altitude
Rises 11:05:23 0° 205° (SSW) 6,164 12.3 66.4°
Reaches altitude 10° 11:10:21 10° 195° (SSW) 5,096 12.1 66.9°
Maximum altitude 11:21:34 28° 144° (SE) 3,439 11.8 68.0°
Drops below altitude 10° 11:30:44 10° 92° (E) 4,137 11.5 68.6°
Sets 11:34:13 0° 81° (E) 4,860 11.7 68.8°
